Погода в Лосиноборске

Погода в Лосиноборске : погода сейчас, прогноз погоды и архив. Всё, что Вы хотите узнать о погоде в Лосиноборске!

Хотите узнать прогноз погоды в Лосиноборске? Тогда Вам сюда: Погода в Лосиноборске

Поиск расширенной информации на нашем сайте:

Другие новости

Новости СМИ2

Главная страница сайта

Новости сайта

03.07.2017

Напоминаем, что на нашем специализированном сайте Метеоцентр.Азия вы можете получить высокодетализированные автоматические прогнозы погоды по пунктам России, СНГ и мира в авиационном формате (включающие направление и скорость ветра, видимость, явления погоды, количество и форму облачности, нижнюю и верхнюю границу облачности).


Погода в Лосиноборске - сегодня

Время (UTC), дата Ветер
(°,м/с) 
Видим.   Явления Облачность Т
(°С)
Тd
(°С)
f(%) Тe
(°С)
Pmin
(гПа)
dP
(гПа)
Po
(мм)
O2
(г/м3)
Тmin Tmax R s Состояние
почвы
09 18.04.18 290 (З) 20000 м    6/6 600 м 
[Cu med, cong]
-2.7 -14.5 40 -2  1019.3  0.6  752  307           
12 18.04.18 290 (З) 20000 м    9/9 600 м кучево-дожд. 
[Cb cap]
-3.5 -12.5 50 -3  1019.5  0.2  752  308    -2.2  0.0     
15 18.04.18 тихо ()   н/о    3/0 верхняя 
[Ci fib]
-6.1 -14.7 51 -6  1020.5  0.8  752  311           
18 18.04.18 тихо ()   н/о    ясно 
-10.2 -13.8 75 -10  1021.3  0.4  753  316           
21 18.04.18 тихо ()   н/о    ясно 
-13.4 -13.4 100 -13  1021.4  -0.1  752  320           
00 19.04.18 тихо ()   20000 м    9/0 средняя 
[Ac As]
-13.9 -15.2 90 -14  1021.7  0.3  753  321  -13.9      26  равномерный
мокрый или
старый снег
100% 
03 19.04.18 230 (ЮЗ) 20000 м    3/0 верхняя 
[Ci fib]
-5 -14.6 47 -5  1021.1  753  310           
06 19.04.18 230 (ЮЗ) 20000 м    3/3 600 м 
[Cu hum]
-1.8 -15.9 33 -1  1020  -0.9  752  306           
09 19.04.18 180 (Ю) 20000 м    3/3 600 м 
[Cu hum]
+0.5 -14.6 31 +1  1018.6  -1.2  751  303           
12 19.04.18 тихо ()   20000 м    3/3 600 м 
[Cu hum]
+1.5 -14.1 30 +2  1017.5  -1.1  750  302    +1.5       
15 19.04.18 тихо ()   н/о    ясно 
-3.1 -14.7 40 -3  1017.2  -0.5  750  307           
18 19.04.18 тихо ()   н/о    ясно 
-3.1 -14.1 42 -3  1017  -0.2  750  307           
21 19.04.18 тихо ()   н/о    3/3 1000 м 
[Sc]
-4 -13.4 48 -4  1016.5  -0.5  749  308           
00 20.04.18 180 (Ю) 10 км    9/9 1000 м 
[Sc]
-2.4 -11.1 51 -3  1016.5  749  306  -4      25  равномерный
мокрый или
старый снег
100% 
03 20.04.18 200 (Ю) 20000 м    8/8 2000 м средняя 
[Ac und]
+2.1 -10.4 39 1015.9  -0.2  749  301           
06 20.04.18 230 (ЮЗ) 4-10  20000 м    4/4 1000 м 
[Cu med, cong]
+5.6 -9.8 32 +4  1015.1  -0.7  749  297           
09 20.04.18 230 (ЮЗ) 4{10}  20000 м    10/10 2000 м 
[Ns]
+6.6 -10.5 28 +5  1015.3  0.3  749  296           
12 20.04.18 200 (Ю) 20000 м    10/0 верхняя 
[Cs]
+5.9 -10.8 29 +4  1015.1  -0.2  749  296    +7.2       
15 20.04.18 тихо ()   н/о    3/0 верхняя 
[Ci fib]
+1.9 -11.4 37 +2  1014.7  -0.6  748  300           
18 20.04.18 230 (ЮЗ) н/о    4/0 верхняя 
[Ci fib]
+2.7 -7.8 46 +3  1013  -1.4  747  299           
21 20.04.18 180 (Ю) н/о    9/0 верхняя 
[Ci fib]
+3.3 -6.6 48 +3  1011.1  -1.9  746  298           
00 21.04.18 200 (Ю) 10 км    10/10 2000 м 
[Ns]
+3.4 -2.3 66 +3  1010.6  -0.5  745  297  +1.5      23  равномерный
мокрый или
старый снег
100% 
03 21.04.18 230 (ЮЗ) 10 км  слаб. дождь  10/10 2000 м 
[Ns]
+4.5 -1.5 65 +2  1010.1  -0.3  745  295           
06 21.04.18 180 (Ю) 10 км  слаб. дождь  10/9 600 м средняя 
[Frnb|As op]
+3.9 +2.1 88 +2  1010.1  745  296           
09 21.04.18 180 (Ю) 10 км  слаб. дождь  10/10 600 м 
[Ns]
+6.3 +0.1 64 +5  1010.2  0.2  745  293           
Время (UTC), дата Ветер
(°,м/с) 
Видим.   Явления Облачность Т
(°С)
Тd
(°С)
f(%) Тe
(°С)
Pmin
(гПа)
dP
(гПа)
Po
(мм)
O2
(г/м3)
Тmin Tmax R s Состояние
почвы

Для получения пояснительной информации подведите курсор к названию столбца.

ПОГОДА в Лосиноборске - архив

Всё, что Вы хотите узнать о погоде в Лосиноборске - удобно и подробно!

Выберите нужную дату (начиная с 1 января 2015* года) и нажмите кнопку "Найти".
Будут отображены архивные сводки погоды по пункту Лосиноборск, начиная с указанной даты.


Отображать данные в формате CSV (для использования в таблицах Excel)


Внимание! Наш архив погоды предназначен исключительно для личного некоммерческого использования в познавательных целях. Если Вам необходимы официальные справки о состоянии погоды (для производственных, юридических, коммерческих и т.п. целей), обращайтесь в органы Росгидромета.

*Примечание: данная дата относится к архиву по метеостанциям СССР (Россия, СНГ, Балтия).
Архив по метеостанциям Зарубежной Европы и Азии (кроме Китая) хранится 10 дней, по другим регионам земного шара (Китай, Африка, Америка, Австралия, Океания) - 1 день.

Лосиноборск - район местоположения метеостанции


Название, широта, долгота, высота метеостанции:
Лосиноборск 58.4°ш. 89.4°д. 137 м над ур. моря [Российская Федерация]

Дополнительная информация

В oтличие oт бoльшинства пoгoдных сайтoв мы публикуем пoдрoбную метеoинфoрмацию в детальнoм прoфессиoнальнoм фoрмате.

Характеристики температуры и влажнoсти вoздуха измеряются на высoте 2 м в тени вдали oт зданий и деревьев.
Скoрoсть ветра измеряется на высoте 10 м (на урoвне рoста челoвека скoрoсть ветра ниже в 1.5-2 раза). Если метеoстанция нахoдится в гoрoде или в лесу, тo скoрoсть ветра занижена на 2-4 м/с пo сравнению с oткрытым местoм. Скoрoсть ветра над акватoриями крупных рек и oзёр, а также на вершинах хoлмoв на 2-5 м/с выше, чем в oбычных услoвиях.
Атмoсфернoе давление в разных тoчках местнoсти мoжет значительнo oтличаться oт давления на метеoстанции, в зависимoсти oт услoвий рельефа (при пoдъёме на 10 м давление пoнижается примернo на 1 мм рт.ст.).